This is the latest recevied weather packets stored in our database for station/object KC7WRB. If no packets are shown the sender has not sent any weather packets the latest 10 day(s).
| Time | Temp. | Humidity | Pressure | Rain* | Wind** | Luminosity | Snow |
|---|---|---|---|---|---|---|---|
| 1777587471 | 20.56° C | 17% | 1016.5 hPa | 0 mm | - | 540 W/m² | - |
| 1777587168 | 20.56° C | 18% | 1016.8 hPa | 0 mm | - | 730 W/m² | - |
| 1777586863 | 21.11° C | 17% | 1017 hPa | 0 mm | - | 749 W/m² | - |
| 1777586559 | 20.56° C | 17% | 1017 hPa | 0 mm | - | 761 W/m² | - |
| 1777586255 | 20.56° C | 19% | 1017 hPa | 0 mm | - | 809 W/m² | - |
| 1777585952 | 21.11° C | 17% | 1017 hPa | 0 mm | - | 817 W/m² | - |
| 1777585648 | 21.11° C | 17% | 1017.1 hPa | 0 mm | - | 822 W/m² | - |
| 1777585343 | 20.56° C | 17% | 1017.4 hPa | 0 mm | - | 830 W/m² | - |
| 1777585038 | 20° C | 20% | 1017.5 hPa | 0 mm | - | 840 W/m² | - |
| 1777584734 | 20° C | 19% | 1017.6 hPa | 0 mm | - | 849 W/m² | - |
| 1777584433 | 20° C | 20% | 1017.9 hPa | 0 mm | - | 855 W/m² | - |
| 1777584129 | 20° C | 19% | 1017.7 hPa | 0 mm | - | 861 W/m² | - |
| 1777583828 | 20° C | 19% | 1017.8 hPa | 0 mm | - | 864 W/m² | - |
| 1777583524 | 20° C | 19% | 1017.7 hPa | 0 mm | - | 872 W/m² | - |
| 1777583217 | 20° C | 19% | 1017.6 hPa | 0 mm | - | 884 W/m² | - |
| 1777582912 | 20.56° C | 18% | 1017.4 hPa | 0 mm | - | 886 W/m² | - |
| 1777582611 | 19.44° C | 18% | 1017.7 hPa | 0 mm | - | 897 W/m² | - |
| 1777582311 | 20° C | 19% | 1017.7 hPa | 0 mm | - | 900 W/m² | - |
| 1777582010 | 20° C | 18% | 1018 hPa | 0 mm | - | 906 W/m² | - |
| 1777581704 | 20° C | 20% | 1017.8 hPa | 0 mm | - | 910 W/m² | - |
| 1777581403 | 20° C | 18% | 1017.8 hPa | 0 mm | - | 918 W/m² | - |
| 1777581098 | 20° C | 18% | 1017.8 hPa | 0 mm | - | 919 W/m² | - |
| 1777580797 | 18.89° C | 19% | 1017.8 hPa | 0 mm | - | 922 W/m² | - |
| 1777580494 | 18.89° C | 19% | 1018.2 hPa | 0 mm | - | 925 W/m² | - |
| 1777580189 | 19.44° C | 19% | 1018.3 hPa | 0 mm | - | 929 W/m² | - |
* Rain latest hour (hover to see other rain measurements)
** Current wind speed in m/s (hover to see current wind gust speed)